User: anonymous   Login
Location: Asarope
(8.2500°N, 4.4833°E)
Time: 12:54:05
(UTC+00:00)
Language:

ADEOS - Orbit

View from above orbital plane
View from above orbital plane
View from above satellite
View from above satellite

Ground track
Ground track

The orbit data is extracted from the following two-line orbital elements,

1 24277U 96046A   20218.95071784 -.00000032 +00000-0 +56627-5 0  9998
2 24277 098.8767 195.2541 0000793 158.2592 201.8623 14.29452080249683
Epoch (UTC): 05 August 2020 22:49:02
Eccentricity: 0.0000793
inclination: 98.8767°
perigee height: 793 km
apogee height: 794 km
right ascension of ascending node: 195.2541°
argument of perigee: 158.2592°
revolutions per day: 14.29452080
mean anomaly at epoch: 201.8623°
orbit number at epoch: 24968

The dashed part of the orbit path shows where the satellite is in the earth's shadow,  

DLR